Regional Weather Roundup
Issued by NWS

Home | Current Version | Previous Version | Text Only | Print | Product List | Glossary Off
Versions: 1 2 3 4 5 6 7 8 9 10 11 12 13 14 15 16 17 18 19 20 21 22 23 24 25 26 27 28 29 30 31 32 33 34 35 36 37 38 39 40 41 42 43 44 45 46 47 48 49 50

000
ASUS45 KTFX 212304
RWRMT
MONTANA HOURLY WEATHER ROUNDUP
NATIONAL WEATHER SERVICE GREAT FALLS MT
504 PM MDT THU AUG 21 2014

NOTE: "FAIR" INDICATES FEW OR NO CLOUDS BELOW 12000 FEET WITH NO
SIGNIFICANT WEATHER AND/OR OBSTRUCTIONS TO VISIBILITY.

* THESE STATIONS ARE NOT UNDER NWS QUALITY CONTROL. THEY DO NOT
   REPORT WEATHER SUCH AS PRECIPITATION OR FOG.

MTZ001>007-043-220000-
WEST OF THE DIVIDE
CITY           SKY/WX    TMP DP  RH WIND       PRES   REMARKS
KALISPELL      PTCLDY    66  48  52 NE16G25   30.04F
MISSOULA       CLOUDY    72  48  43 N22       29.98S
BUTTE          MOCLDY    64  46  52 SE12      30.08F
MULLAN PASS    MOCLDY    59  48  67 CALM      30.10F
* ESSEX        N/A       58  45  62 NE2G8      N/A
* LINCOLN      N/A       66  48  52 NE10G25    N/A
* LOOKOUT PASS N/A       63  50  63 S8G13      N/A
* POLSON       N/A       64  50  61 NE3G9      N/A
* RONAN APT    MOCLDY    66  54  65 N11G16     N/A
* SEELEY LAKE  N/A       67  49  53 W5G11      N/A
* THOMP F APT  MOCLDY    61  48  62 SW6G16     N/A
* YAAK HILL    N/A       78  42  28 S1G6       N/A
$$

MTZ008-052>055-220000-
SOUTHWEST MONTANA
CITY           SKY/WX    TMP DP  RH WIND       PRES   REMARKS
BOZEMAN        FAIR      68  46  45 CALM      30.07F
DILLON         PTCLDY    72  45  38 N9        30.02F
W YELLOWSTONE  MOCLDY    63  46  54 SW13      30.14S
* THREE FORKS  PTCLDY    66  66 100 N/A        N/A
* BOULDER HILL N/A       61  43  52 W3         N/A
* MONIDA PASS  N/A       53  42  66 S22G29     N/A
* RAYNOLDS PAS N/A       59  41  51 S7         N/A
* WHITEHALL    N/A       62  48  60 NE8G15     N/A
* WISE RIVER   N/A       66  47  51 SE13G21    N/A
$$

MTZ009>010-012-014-046-048-049-054-220000-
EAST SLOPES AND CENTRAL MONTANA
CITY           SKY/WX    TMP DP  RH WIND       PRES   REMARKS
CUT BANK       CLOUDY    55  48  77 N16       30.15S
GREAT FALLS    CLOUDY    63  52  68 N10       30.09S
HELENA         PTCLDY    73  48  41 N8G18     30.03F
MALMSTROM AFB  LGT RAIN  61  54  78 NW14G22   30.10S
* CONRAD       MOCLDY    55  55 100 NW9        N/A
* DEARBORN     N/A       63  49  60 VRB8       N/A
* EAST GLACIER N/A       49  45  86 SE6        N/A
* MONARCH      N/A       54  46  74 NW7        N/A
* PENDROY      N/A       52  50  93 NE13       N/A
* ROGERS PASS  N/A       50  48  93 S2         N/A
* SAINT MARY   N/A       49  47  93 N5         N/A
* SWEET GRASS  N/A       51  51 100 N12G20     N/A
$$

MTZ011-013-016-021-035-040-045-047-050-051-220000-
NORTH CENTRAL MONTANA
CITY           SKY/WX    TMP DP  RH WIND       PRES   REMARKS
HAVRE          CLOUDY    64  54  70 N15       30.05R
LEWISTOWN      LGT RAIN  59  55  87 W6        30.11R
* CHESTER      N/A       60  50  70 NE13G21    N/A
* DENTON       N/A       59  56  90 SW6        N/A
* GEYSER       N/A       62  47  58 W12G17     N/A
* JUDITH GAP   N/A       53  53 100 N9         N/A
* LOMA         N/A       66  55  68 N9         N/A
$$

MTZ017>020-022>027-061-062-220000-
NORTHEAST MONTANA
CITY           SKY/WX    TMP DP  RH WIND       PRES   REMARKS
GLASGOW        LGT RAIN  64  59  84 S3        30.01R
GLENDIVE       MOCLDY    70  61  73 NE8       29.99S
JORDAN         CLOUDY    70  57  64 E6        30.00R
SIDNEY         PTCLDY    72  63  73 NE5       29.97F
WOLF POINT     MOCLDY    75  57  54 E7        29.96S
* BEAVER HILL  N/A       73  58  59 NW1G6      N/A
* CIRCLE       N/A       71  58  64 N/A        N/A
* LINDSAY DVD  N/A       72  56  57 NW7G16     N/A
* SACO         N/A       62  60  93 N12        N/A
$$

MTZ028>042-056>058-220000-
SOUTHCENTRAL AND SOUTHEAST MONTANA
CITY           SKY/WX    TMP DP  RH WIND       PRES   REMARKS
BAKER          PTCLDY    79  55  44 N7        29.98F
BILLINGS       CLOUDY    61  57  87 N7        30.07S
LIVINGSTON     MOCLDY    70  48  46 N7        30.08F
MILES CITY     CLOUDY    73  54  51 NW12      29.97S
* LAUREL APT   MOCLDY    61  55  81 N6         N/A
* ROUNDUP APT  CLOUDY    61  55  81 N/A        N/A
* ALZADA       N/A       79  49  35 NE4G9      N/A
* HYSHAM       N/A       60  57  90 W1         N/A
* REED POINT   N/A       60  57  90 SW3        N/A
* ROSCOE HILL  N/A       54  51  90 NW6G12     N/A
$$

REGIONAL REPORTS...DAKOTAS
CITY           SKY/WX    TMP DP  RH WIND       PRES   REMARKS
WILLISTON      MOCLDY    75  55  50 N8        29.96S
DICKINSON      PTCLDY    75  61  62 N12       29.95R
BEACH          N/A       72  63  73 NE7       29.99S
CROSBY         FAIR      73  59  62 N12G20    29.97S
TIOGA          FAIR      70  59  68 N10       29.99S
WATFORD CITY   CLEAR     73  57  57 N8        29.94F
BISMARCK       FAIR      82  63  53 N13       29.89S HI  83
GRAND FORKS    MOCLDY    79  68  69 CALM      29.81R
FARGO          CLOUDY    75  72  90 E3        29.81S
BUFFALO SD     PTCLDY    75  57  54 N14       29.90S
RAPID CITY     MOCLDY    75  63  66 N7        29.95S
$$

REGIONAL REPORTS...WYOMING/IDAHO/WASHINGTON
CITY           SKY/WX    TMP DP  RH WIND       PRES   REMARKS
GILLETTE       MOCLDY    81  48  32 VRB3      29.98F
SHERIDAN       CLOUDY    64  55  73 NW16      30.05R
CODY           MOCLDY    66  48  52 NE3       30.07S
YELLOWSTONE LA PTCLDY    55  45  69 VRB5      30.24F
SALMON         CLOUDY    72  48  43 N6        29.94F
MULLAN PASS    MOCLDY    59  48  67 CALM      30.10S
SAND POINT     MOCLDY    77  50  39 CALM      29.93F
SPOKANE        MOCLDY    79  46  31 N/A       29.92F
$$

REGIONAL REPORTS...SASKATCHEWAN
CITY           SKY/WX    TMP DP  RH WIND       PRES   REMARKS
SWIFT CURRENT  LGT RAIN  57  57 100 N13       30.09R

$$




USA.gov is the U.S. government's official web portal to all federal, state and local government web resources and services.